Tracking 33208 objects as of 14-Feb-2026
HD Live streaming from Space Station
objects crossing your sky now

KUIPER-00077

Track KUIPER-00077 now!
10-day predictions
KUIPER-00077 is classified as:


NORAD ID: 64824
Int'l Code: 2025-151J
Perigee: 635.4 km
Apogee: 638.0 km
Inclination: 51.9 °
Period: 97.3 minutes
Semi major axis: 7007 km
RCS: Unknown
Launch date: July 16, 2025
Source: United States (US)
Launch site: AIR FORCE EASTERN TEST RANGE (AFETR)
Your satellite tracking list
Your tracking list is empty




NASA's NSSDC Master Catalog

Two Line Element Set (TLE):
1 64824U 25151J   26045.19484098  .00004676  00000-0  64196-3 0  9990
2 64824  51.9024  41.9897 0001894 152.0506 208.0558 14.79931758 31866
Source of the keplerian elements: AFSPC